User: anonymous   Login
Location: Unspecified
(0.0000°N, 0.0000°E)
Time: 13:37:16
(UTC+01:00)
Language:

SJ-6B - Orbit

View from above orbital plane
View from above orbital plane
View from above satellite
View from above satellite

Ground track
Ground track

The orbit data is extracted from the following two-line orbital elements,

1 28415U 04035C   16344.67124547  .00000770  00000-0  55701-4 0  9992
2 28415  97.7650   6.6790 0053621  45.5702 314.9893 15.05992286670056
Epoch (UTC): 09 December 2016 16:06:35
Eccentricity: 0.0053621
inclination: 97.7650°
perigee height: 511 km
apogee height: 585 km
right ascension of ascending node: 6.6790°
argument of perigee: 45.5702°
revolutions per day: 15.05992286
mean anomaly at epoch: 314.9893°
orbit number at epoch: 67005

The dashed part of the orbit path shows where the satellite is in the earth's shadow,  

DLR